Volver al catálogo

COSMOS 1317 DEB

LostHEO
NORAD 35511·DEBRIS·🇷🇺 Russia

Lanzado Oct 31, 1981 desde Plesetsk Cosmodrome

Loading…

Próximos Pases (próximas 24 horas)

TLE

ObsoletoSource: Space-Track

Época: Jul 5, 2013, 21:45 UTC

1 35511U 81108L   13186.90636025 -.00000041  00000-0  00000+0 0  9998
2 35511  74.8372 292.9860 4957355 108.1771  14.1548  2.00238154 34091

Sigue COSMOS 1317 DEB en tiempo real con AllMySat

Download on the App Store